Total_Precipitation_Accumulation
0.00 0.06 0.09 0.12 0.13 0.04 0.00 0.00 0.00 0.01 0.00 0.01 0.01 0.02 0.01 0.05 0.05 0.06 0.00 0.00 0.00 0.00 0.00 0.02 0.04 0.02 0.01 0.03 0.06 0.06 0.05 0.04 0.06 0.08 0.04 0.10 0.08 0.07 0.15 0.21 0.19 0.22 0.16 0.15 0.12 0.08 0.10 0.06 0.02
0.00 0.01 0.04 0.05 0.13 0.00 0.00 0.00 0.00 0.00 0.01 0.02 0.01 0.06 0.06 0.03 0.00 0.00 0.00 0.00 0.00 0.00 0.00 0.00 0.02 0.03 0.01 0.03 0.03 0.02 0.02 0.03 0.04 0.06 0.05 0.05 0.06 0.08 0.18 0.26 0.24 0.23 0.21 0.11 0.04 0.03 0.06 0.07 0.08
0.00 0.00 0.00 0.05 0.01 0.00 0.00 0.00 0.00 0.00 0.00 0.01 0.00 0.07 0.04 0.01 0.00 0.00 0.00 0.00 0.00 0.00 0.00 0.00 0.01 0.01 0.04 0.06 0.03 0.01 0.00 0.01 0.02 0.04 0.02 0.07 0.12 0.08 0.06 0.15 0.19 0.11 0.15 0.04 0.02 0.04 0.03 0.05 0.13
0.00 0.00 0.00 0.00 0.00 0.00 0.00 0.00 0.00 0.00 0.00 0.00 0.00 0.00 0.00 0.00 0.00 0.00 0.00 0.00 0.00 0.00 0.00 0.01 0.04 0.04 0.07 0.04 0.01 0.00 0.00 0.01 0.02 0.04 0.04 0.08 0.09 0.08 0.08 0.06 0.06 0.03 0.02 0.01 0.00 0.02 0.06 0.05 0.05
0.00 0.00 0.00 0.00 0.00 0.00 0.00 0.00 0.00 0.00 0.00 0.00 0.00 0.00 0.00 0.00 0.00 0.00 0.00 0.00 0.00 0.00 0.00 0.00 0.02 0.02 0.03 0.01 0.02 0.01 0.02 0.01 0.00 0.02 0.04 0.06 0.02 0.03 0.09 0.06 0.06 0.02 0.02 0.06 0.01 0.01 0.04 0.02 0.03
0.00 0.00 0.00 0.00 0.00 0.00 0.00 0.00 0.00 0.00 0.00 0.00 0.00 0.00 0.00 0.00 0.00 0.00 0.00 0.00 0.00 0.00 0.00 0.00 0.02 0.00 0.00 0.00 0.01 0.02 0.05 0.07 0.02 0.01 0.02 0.02 0.01 0.00 0.03 0.05 0.06 0.08 0.05 0.06 0.03 0.03 0.05 0.01 0.02
0.00 0.00 0.00 0.00 0.00 0.00 0.00 0.00 0.00 0.00 0.00 0.00 0.00 0.00 0.00 0.00 0.00 0.00 0.00 0.00 0.00 0.00 0.00 0.00 0.00 0.00 0.00 0.03 0.04 0.01 0.01 0.02 0.06 0.04 0.03 0.06 0.02 0.01 0.03 0.04 0.03 0.02 0.06 0.05 0.03 0.03 0.06 0.03 0.02
0.00 0.01 0.00 0.00 0.00 0.00 0.00 0.00 0.00 0.00 0.00 0.00 0.00 0.00 0.00 0.00 0.00 0.00 0.00 0.00 0.00 0.00 0.00 0.00 0.00 0.00 0.02 0.17 0.15 0.03 0.01 0.02 0.02 0.05 0.03 0.03 0.03 0.05 0.04 0.06 0.06 0.03 0.04 0.03 0.08 0.02 0.01 0.02 0.01
0.00 0.00 0.00 0.00 0.00 0.00 0.00 0.00 0.00 0.00 0.00 0.00 0.00 0.00 0.00 0.00 0.00 0.00 0.00 0.00 0.00 0.00 0.00 0.00 0.00 0.00 0.05 0.64 0.10 0.07 0.08 0.02 0.01 0.01 0.05 0.09 0.04 0.07 0.09 0.08 0.08 0.03 0.02 0.02 0.03 0.01 0.01 0.02 0.00
0.00 0.00 0.00 0.00 0.00 0.00 0.00 0.00 0.01 0.00 0.00 0.00 0.00 0.00 0.00 0.00 0.00 0.00 0.00 0.00 0.00 0.00 0.00 0.00 0.00 0.00 0.00 0.03 0.24 0.48 0.40 0.38 0.11 0.04 0.11 0.08 0.03 0.08 0.06 0.08 0.07 0.05 0.04 0.04 0.03 0.03 0.01 0.00 0.00
0.00 0.00 0.00 0.00 0.00 0.00 0.00 0.00 0.02 0.02 0.00 0.00 0.00 0.00 0.00 0.00 0.00 0.00 0.00 0.00 0.00 0.00 0.00 0.00 0.00 0.00 0.01 0.02 0.16 0.36 0.33 0.32 0.22 0.06 0.06 0.08 0.07 0.16 0.13 0.09 0.06 0.04 0.03 0.02 0.06 0.03 0.02 0.00 0.01
0.00 0.00 0.00 0.00 0.00 0.00 0.00 0.00 0.01 0.02 0.01 0.00 0.00 0.00 0.00 0.00 0.00 0.00 0.00 0.00 0.00 0.00 0.00 0.00 0.00 0.00 0.01 0.01 0.06 0.12 0.34 0.32 0.17 0.05 0.06 0.28 0.39 0.39 0.26 0.14 0.06 0.06 0.12 0.11 0.13 0.11 0.08 0.01 0.07
0.00 0.00 0.00 0.00 0.00 0.00 0.00 0.00 0.00 0.00 0.01 0.01 0.00 0.00 0.00 0.00 0.01 0.02 0.01 0.00 0.00 0.00 0.01 0.01 0.01 0.02 0.01 0.00 0.03 0.07 0.16 0.35 0.17 0.09 0.25 0.22 0.31 0.52 0.45 0.18 0.17 0.08 0.06 0.06 0.06 0.05 0.10 0.10 0.07
0.00 0.00 0.00 0.01 0.00 0.00 0.00 0.00 0.00 0.00 0.00 0.00 0.02 0.01 0.01 0.00 0.01 0.01 0.01 0.03 0.01 0.00 0.02 0.02 0.03 0.04 0.05 0.02 0.05 0.07 0.03 0.39 0.51 0.41 0.24 0.30 0.14 0.13 0.20 0.16 0.12 0.21 0.20 0.19 0.13 0.15 0.14 0.16 0.14
0.00 0.00 0.00 0.05 0.04 0.03 0.13 0.31 0.00 0.00 0.02 0.04 0.05 0.04 0.04 0.08 0.11 0.13 0.09 0.06 0.03 0.07 0.07 0.06 0.04 0.10 0.04 0.06 0.07 0.07 0.04 0.41 0.35 0.19 0.06 0.09 0.07 0.14 0.12 0.07 0.27 0.34 0.21 0.26 0.23 0.17 0.23 0.19 0.13
0.00 0.00 0.14 0.05 0.04 0.14 0.13 0.64 0.05 0.02 0.05 0.05 0.07 0.09 0.11 0.76 1.20 0.61 0.32 0.35 0.45 0.37 0.39 0.13 0.06 0.12 0.08 0.04 0.03 0.01 0.05 0.34 0.09 0.05 0.03 0.04 0.02 0.00 0.01 0.01 0.17 0.24 0.15 0.32 0.48 0.84 0.67 0.46 0.34
0.01 0.02 0.05 0.03 0.01 0.03 0.04 0.39 0.08 0.03 0.04 0.09 0.09 0.68 0.20 0.76 1.51 0.64 0.47 0.48 0.54 0.45 0.32 0.32 0.31 0.15 0.09 0.00 0.00 0.00 0.01 0.06 0.06 0.05 0.03 0.08 0.03 0.01 0.03 0.04 0.04 0.01 0.09 0.34 0.35 0.64 0.51 0.17 0.16
0.01 0.02 0.01 0.01 0.03 0.00 0.01 0.13 0.12 0.01 0.05 0.09 0.03 0.24 0.19 0.30 0.50 0.36 0.24 0.56 1.12 0.29 0.14 0.25 0.25 0.41 0.05 0.02 0.00 0.01 0.00 0.02 0.24 0.12 0.10 0.23 0.20 0.06 0.04 0.08 0.24 0.07 0.22 0.60 0.23 0.20 0.08 0.08 0.18
0.00 0.00 0.00 0.00 0.02 0.00 0.00 0.02 0.13 0.09 0.03 0.04 0.02 0.11 0.24 0.26 0.22 0.18 0.22 0.25 0.43 0.45 0.11 0.20 0.16 0.08 0.03 0.01 0.01 0.01 0.05 0.01 0.18 0.16 0.22 0.49 0.16 0.15 0.07 0.06 0.15 0.14 0.24 0.30 0.30 0.19 0.13 0.04 0.09
0.00 0.00 0.00 0.00 0.00 0.00 0.00 0.00 0.12 0.17 0.03 0.03 0.02 0.09 0.19 0.24 0.21 0.25 0.21 0.33 1.12 0.88 0.19 0.10 0.08 0.09 0.04 0.02 0.00 0.00 0.01 0.03 0.13 0.10 0.19 0.40 0.28 0.26 0.17 0.19 0.22 0.47 0.62 0.23 0.33 0.27 0.15 0.12 0.14
0.00 0.00 0.00 0.00 0.00 0.00 0.00 0.00 0.03 0.04 0.03 0.01 0.01 0.07 0.11 0.12 0.18 0.26 0.21 0.27 0.47 0.68 0.12 0.02 0.03 0.05 0.02 0.01 0.02 0.11 0.14 0.23 0.36 0.28 0.33 0.56 1.20 0.38 0.15 0.20 0.43 0.57 0.65 0.29 0.46 0.32 0.29 0.28 0.36
0.00 0.00 0.00 0.00 0.00 0.13 0.04 0.00 0.07 0.14 0.01 0.01 0.00 0.02 0.08 0.07 0.12 0.15 0.09 0.06 0.10 0.10 0.03 0.00 0.00 0.00 0.01 0.01 0.11 0.24 0.26 0.33 0.44 0.73 1.05 0.30 0.91 0.32 0.21 0.34 0.68 0.43 0.47 0.44 0.42 0.32 0.42 0.76 1.26
0.00 0.00 0.00 0.00 0.00 0.00 0.00 0.00 0.02 0.06 0.31 0.12 0.01 0.03 0.07 0.06 0.08 0.07 0.05 0.09 0.24 0.19 0.07 0.00 0.00 0.00 0.02 0.09 0.30 0.35 0.43 0.59 0.70 1.15 0.80 0.37 0.43 0.23 0.27 0.46 0.71 0.48 0.39 0.51 0.72 0.62 0.67 0.54 0.64
0.01 0.01 0.00 0.00 0.00 0.00 0.00 0.00 0.02 0.07 0.20 0.09 0.02 0.04 0.02 0.03 0.03 0.03 0.04 0.08 0.12 0.14 0.10 0.00 0.00 0.01 0.01 0.06 0.21 0.24 0.39 0.46 0.55 0.42 0.49 0.25 0.35 0.41 0.67 0.74 0.73 0.59 0.47 0.58 0.57 0.57 0.50 0.27 0.27
0.03 0.03 0.02 0.01 0.01 0.00 0.00 0.00 0.06 0.05 0.00 0.00 0.01 0.02 0.01 0.01 0.00 0.00 0.01 0.04 0.05 0.09 0.15 0.08 0.02 0.23 0.24 0.18 0.15 0.14 0.31 0.25 0.31 0.24 0.37 0.53 0.62 0.62 0.61 0.64 0.69 0.74 0.51 0.39 0.45 0.36 0.24 0.25 0.15
0.03 0.02 0.03 0.03 0.00 0.00 0.00 0.00 0.03 0.01 0.01 0.01 0.02 0.01 0.00 0.00 0.00 0.00 0.02 0.02 0.04 0.08 0.14 0.17 0.25 0.50 0.19 0.17 0.26 0.31 0.25 0.23 0.30 0.26 0.33 0.51 0.35 0.35 0.20 0.09 0.11 0.18 0.16 0.17 0.18 0.10 0.09 0.11 0.11
0.00 0.01 0.02 0.01 0.00 0.00 0.00 0.00 0.00 0.00 0.01 0.00 0.01 0.01 0.00 0.00 0.00 0.00 0.00 0.03 0.14 0.14 0.26 0.28 0.46 0.30 0.18 0.17 0.18 0.16 0.15 0.08 0.07 0.03 0.03 0.06 0.02 0.04 0.06 0.04 0.03 0.02 0.02 0.02 0.02 0.02 0.07 0.15 0.16
0.00 0.00 0.00 0.00 0.00 0.00 0.00 0.03 0.16 0.07 0.00 0.00 0.01 0.01 0.00 0.00 0.00 0.02 0.02 0.04 0.15 0.21 0.25 0.61 1.16 0.85 0.37 0.05 0.04 0.02 0.01 0.00 0.00 0.00 0.00 0.00 0.00 0.00 0.00 0.00 0.00 0.00 0.01 0.02 0.02 0.02 0.06 0.12 0.14
0.00 0.00 0.00 0.00 0.00 0.00 0.01 0.04 0.01 0.02 0.00 0.01 0.03 0.01 0.01 0.00 0.00 0.01 0.01 0.06 0.12 0.35 0.41 0.85 0.84 0.36 0.10 0.05 0.03 0.01 0.00 0.00 0.00 0.00 0.00 0.00 0.00 0.00 0.00 0.00 0.00 0.00 0.00 0.01 0.01 0.01 0.01 0.02 0.04
0.00 0.00 0.00 0.00 0.00 0.01 0.01 0.00 0.03 0.02 0.05 0.26 0.10 0.05 0.01 0.02 0.05 0.05 0.08 0.08 0.17 0.18 0.23 0.23 0.08 0.02 0.01 0.00 0.00 0.00 0.00 0.00 0.00 0.00 0.00 0.00 0.00 0.00 0.00 0.00 0.00 0.00 0.00 0.00 0.00 0.00 0.01 0.01 0.01